Regional Weather Roundup
Issued by NWS

Home | Current Version | Previous Version | Graphics & Text | Print | Product List | Glossary On
Versions: 1 2 3 4 5 6 7 8 9 10 11 12 13 14 15 16 17 18 19 20 21 22 23 24 25 26
000
ASUS45 KBOU 211010
RWRCO

WEATHER ROUNDUP FOR COLORADO
NATIONAL WEATHER SERVICE DENVER/BOULDER CO
400 AM MDT MON MAY 21 2018

NOTE: "FAIR" INDICATES FEW OR NO CLOUDS BELOW 12000 FEET WITH NO
SIGNIFICANT WEATHER AND/OR OBSTRUCTIONS TO VISIBILITY.

COZ001>005-013-030-031-211100-
...NORTHWEST COLORADO...

CITY           SKY/WX    TMP DP  RH WIND       PRES   REMARKS
CRAIG          FAIR      38  36  92 CALM      30.05F
HAYDEN         FAIR      42  36  79 E12       30.08F
MEEKER         FAIR      36  34  92 NE6       30.06S
RANGELY        FAIR      43  37  78 CALM      29.99F
RABBIT EARS PA FAIR      36  32  87 CALM      30.25F
STEAMBOAT SPGS FAIR      39  35  85 CALM      30.09S
WALDEN         FAIR      34  32  93 SE9       30.17S WCI  26
$$

COZ006>008-011-211100-
...WEST CENTRAL VALLEYS...

CITY           SKY/WX    TMP DP  RH WIND       PRES   REMARKS
GRAND JUNCTION FAIR      56  37  49 E10       29.96S
MONTROSE       FAIR      43  31  62 SE6       30.05R
EAGLE          FAIR      37  30  75 CALM      30.15R
RIFLE          FAIR      42  37  82 E5        30.05S
DELTA          FAIR      49  32  51 CALM      30.02R
NUCLA          FAIR      46  18  31 SE8       30.04S
$$

COZ017>023-064>068-211100-
...SOUTHWEST COLORADO...

CITY           SKY/WX    TMP DP  RH WIND       PRES   REMARKS
DURANGO        FAIR      50  33  52 NE7       30.08S
CORTEZ         FAIR      46  23  40 VRB5      30.01F
PAGOSA SPRINGS FAIR      42  29  59 CALM      30.17S
TELLURIDE      FAIR      50  26  39 CALM      30.21R
WOLF CREEK PAS FAIR      34  32  93 S12G17    30.41S WCI  25
$$

COZ009-010-012-014-032>034-037-058>063-211100-
...CENTRAL COLORADO...

CITY           SKY/WX    TMP DP  RH WIND       PRES   REMARKS
ASPEN          FAIR      35  32  88 CALM      30.13R
BUENA VISTA    CLOUDY    42  34  72 W3        30.23S
COPPER MTN     FAIR      37  23  56 S21       30.34S
BERTHOUD PASS  FAIR      32  21  64 W14       30.36S WCI  22
COTTONWOOD PAS FAIR      41  37  87 CALM      30.28S
GUNNISON       FAIR      37  32  82 NE5       30.21R
GRANBY         FAIR      33  32  94 CALM      30.20R
KREMMLING      FAIR      39  34  81 CALM      30.17R
LEADVILLE      CLOUDY    34  32  92 E3        30.27S
MONARCH PASS   FAIR      32  30  93 MISG      30.45F
SALIDA         FAIR      38  35  87 SW5       30.29S
SUNLIGHT       FAIR      34  25  69 E7        30.30R WCI  28
WILKERSON PASS CLOUDY    32  32 100 SW12G17   30.34S WCI  23
$$

COZ069>075-211100-
...SAN LUIS VALLEY/SANGRE DE CRISTO MOUNTAINS...

CITY           SKY/WX    TMP DP  RH WIND       PRES   REMARKS
ALAMOSA        MOCLDY    41  39  93 CALM      30.20R
DEL NORTE      CLOUDY    41  33  73 W3        30.23S
LA VETA PASS   FAIR      39  36  87 S7        30.41F
SAGUACHE       NOT AVBL
$$

COZ035-036-038>040-211100-
...NORTHERN COLORADO FRONT RANGE...

CITY           SKY/WX    TMP DP  RH WIND       PRES   REMARKS
DENVER INTL AP FOG       44  42  93 W7        30.04S VSB 1/4
AURORA         FOG       45  45 100 CALM      30.05F VSB 3/8
FRONT RANGE AP FOG       45  43  95 SW8       30.06S VSB 3/4
ERIE MUNI ARPT FAIR      38  37  99 CALM      30.10S FOG
BOULDER MUN AP FAIR      43  43 100 SW5       30.05R
CENTENNIAL     FAIR      48  40  73 S3        30.05F
BROOMFIELD     FAIR      41  41 100 NW3       30.06S FOG
FORT COLLINS   FAIR      43  42  97 NE6       30.05S
LONGMONT       FAIR      44  42  93 CALM      30.07R
$$

COZ041-046-047-076>085-087-088-211100-
...PIKES PEAK/PALMER DIVIDE AND SOUTHERN FOOTHILLS...

CITY           SKY/WX    TMP DP  RH WIND       PRES   REMARKS
COLO. SPRINGS  MOCLDY    48  41  76 SE9       30.12F
A. F. ACADEMY  FAIR      39  39  99 N7        30.12F
SCHRIEVER AFB  NOT AVBL
CHEYENNE MTN   MOCLDY    47  38  71 S3        30.09F
ELLICOTT         N/A    N/A N/A N/A CALM      30.10F
FALCON         FAIR      45  41  87 S9        30.14F
FORT CARSON    FAIR      48  40  75 W3        30.09F
LIMON          FAIR      43  43 100 SE7       30.08F
MONUMENT HILL  FAIR      43  37  81 S15       30.13S
CANON CITY     FAIR      48  45  87 W7        30.10F
WALSENBURG     FAIR      48  46  93 SW8       30.14R
TRINIDAD       FAIR      47  45  93 NW9       30.16S
$$

COZ042>045-048>051-090-091-211100-
...NORTHEAST COLORADO...

CITY           SKY/WX    TMP DP  RH WIND       PRES   REMARKS
GREELEY ARPT   FAIR      43  42  97 CALM      30.04S
AKRON          FOG       46  46 100 SE14      30.06F VSB 3/4
BURLINGTON     CLOUDY    49  49 100 S13       30.09F FOG
WRAY           FAIR      46  46 100 S7        30.08F
YUMA           FAIR      43  34  70 S3        30.07F HAZE
STERLING       FAIR      48  46  93 S9        30.04F
HOLYOKE        FAIR      46  43  87 S5        30.09S
FORT MORGAN    FAIR      46  43  90 SE8       30.04F
$$

COZ086-089-092>099-211100-
...SOUTHEAST COLORADO...

CITY           SKY/WX    TMP DP  RH WIND       PRES   REMARKS
PUEBLO         FAIR      48  42  80 SW3       30.09F
LA JUNTA       FAIR      52  47  83 W6        30.08S
LAMAR          FAIR      52  45  77 NE5       30.06R
SPRINGFIELD      N/A     51  48  89 S6        30.08F
$$




USA.gov is the U.S. government's official web portal to all federal, state and local government web resources and services.